Weather History for Bellingham, WA

Change the Weather History Date:

Sunday, October 7, 2012

  Actual Average Record
Temperature  
Mean Temperature 54 °F 52 °F  
Max Temperature 70 °F 61 °F 75 °F (1951)
Min Temperature 39 °F 43 °F 31 °F (1983)
Degree Days  
Heating Degree Days 10 13  
Month to date heating degree days 87  
Cooling Degree Days 0 0  
Month to date cooling degree days 0  
Year to date cooling degree days 42  
Growing Degree Days 4 (Base 50)    
Moisture  
Dew Point 42 °F    
Average Humidity 71    
Maximum Humidity 93    
Minimum Humidity 39    
Precipitation  
Precipitation 0.00 in 0.09 in 0.89 in (1967)
Month to date precipitation 0.58  
Year to date precipitation 22.71  
Sea Level Pressure  
Sea Level Pressure 30.05 in    
Wind  
Wind Speed 1 mph (NW)    
Max Wind Speed 8 mph    
Max Gust Speed -    
Visibility 9 miles    
Events      
T = Trace of Precipitation, MM = Missing Value Source: NWS Daily Summary

Daily Weather History Graph

Daily Weather History Graph

Search for Another Location

Airport:

Trip Planner

Search our weather history database for the weather conditions in past years. The results will help you decide how hot, cold, wet, or windy it might be!

Date:

Astronomy

Oct. 07, 2012 Rise Set
Actual Time 7:19 AM PDT 6:35 PM PDT
Civil Twilight 6:47 AM PDT 7:06 PM PDT
Nautical Twilight 6:11 AM PDT 7:43 PM PDT
Astronomical Twilight 5:34 AM PDT 8:20 PM PDT
Moon 11:32 PM PDT (10/7) 2:20 PM PDT (10/7)
Length of Visible Light 12h 18m
Length of Day
11h 15m
Waning Gibbous, 55% of the Moon is Illuminated
Oct 7
Waning Gibbous
Oct 8
Last Quarter
Oct 15
New
Oct 21
First Quarter
Oct 29
Full

Hourly Weather History & Observations

Time (PDT) Temp. Dew Point Humidity Pressure Visibility Wind Dir Wind Speed Gust Speed Precip Events Conditions
12:53 AM 43.0 °F 39.9 °F 89% 30.14 in 10.0 mi Calm Calm - N/A   Clear
1:53 AM 44.1 °F 41.0 °F 89% 30.14 in 10.0 mi Calm Calm - N/A   Clear
2:53 AM 43.0 °F 39.9 °F 89% 30.13 in 6.0 mi Calm Calm - N/A   Clear
3:53 AM 39.9 °F 37.9 °F 93% 30.13 in 4.0 mi Calm Calm - N/A   Clear
4:53 AM 39.0 °F 37.0 °F 93% 30.12 in 6.0 mi Calm Calm - N/A   Clear
5:53 AM 39.0 °F 36.0 °F 89% 30.12 in 10.0 mi Calm Calm - N/A   Clear
6:53 AM 39.0 °F 36.0 °F 89% 30.12 in 10.0 mi Calm Calm - N/A   Clear
7:53 AM 39.9 °F 37.9 °F 93% 30.12 in 10.0 mi Calm Calm - N/A   Clear
8:53 AM 48.9 °F 45.0 °F 86% 30.12 in 10.0 mi Calm Calm - N/A   Clear
9:53 AM 55.0 °F 44.1 °F 67% 30.11 in 10.0 mi North 3.5 mph - N/A   Clear
10:53 AM 62.1 °F 44.1 °F 52% 30.11 in 10.0 mi North 6.9 mph - N/A   Clear
11:53 AM 66.0 °F 44.1 °F 45% 30.09 in 10.0 mi NNW 6.9 mph - N/A   Clear
12:53 PM 68.0 °F 43.0 °F 40% 30.06 in 10.0 mi Calm Calm - N/A   Clear
1:53 PM 68.0 °F 46.0 °F 45% 30.04 in 10.0 mi WNW 8.1 mph - N/A   Clear
2:53 PM 68.0 °F 46.0 °F 45% 30.03 in 10.0 mi West 5.8 mph - N/A   Clear
3:53 PM 70.0 °F 44.1 °F 39% 30.00 in 10.0 mi West 6.9 mph - N/A   Clear
4:53 PM 66.9 °F 43.0 °F 42% 29.98 in 10.0 mi West 5.8 mph - N/A   Clear
5:53 PM 64.0 °F 43.0 °F 46% 29.96 in 10.0 mi Calm Calm - N/A   Clear
6:53 PM 55.9 °F 45.0 °F 67% 29.96 in 10.0 mi Calm Calm - N/A   Clear
7:53 PM 53.1 °F 44.1 °F 71% 29.96 in 10.0 mi Calm Calm - N/A   Clear
8:53 PM 50.0 °F 43.0 °F 77% 29.95 in 10.0 mi Calm Calm - N/A   Clear
9:53 PM 48.0 °F 43.0 °F 83% 29.95 in 10.0 mi Calm Calm - N/A   Clear
10:53 PM 45.0 °F 42.1 °F 90% 29.95 in 10.0 mi Calm Calm - N/A   Clear
11:53 PM 45.0 °F 42.1 °F 90% 29.96 in 10.0 mi Calm Calm - N/A   Clear